UAE2Y OPKC-OMDB

Flight info

Callsign UAE2Y
Flight time 1h 33m
Altitude 36000
Route MELOM1G MELOM A454 PASOV B540 MIVEK P574 IMPED IMPED3C
Aircraft B77W/H-SDE1E2E3FGHIJ2J3J4J5M1RWXY/LB1D1

Departure

Time 2026-05-06 16:16
Airport Jinnah International Airport (OPKC)

Arrival

Time 2026-05-06 17:49
Airport Dubai International Airport (OMDB)
Time Latitude Longitude Altitude Speed Heading
2026-05-06 15:51 24.90301 67.16833 106 ft 0 kts 125°
2026-05-06 15:51 24.90299 67.16837 106 ft 0 kts 125°
2026-05-06 16:08 24.90303 67.16830 107 ft 4 kts 122°
2026-05-06 16:08 24.90315 67.16804 107 ft 4 kts 105°
2026-05-06 16:08 24.90318 67.16775 106 ft 4 kts 77°
2026-05-06 16:08 24.90308 67.16750 106 ft 4 kts 39°
2026-05-06 16:09 24.90286 67.16740 106 ft 3 kts 348°
2026-05-06 16:09 24.90283 67.16741 108 ft 0 kts 345°
2026-05-06 16:12 24.90323 67.16729 108 ft 12 kts 345°
2026-05-06 16:12 24.90406 67.16704 107 ft 12 kts 345°
2026-05-06 16:12 24.90478 67.16727 107 ft 12 kts 63°
2026-05-06 16:12 24.90509 67.16817 107 ft 13 kts 72°
2026-05-06 16:13 24.90532 67.16910 107 ft 13 kts 76°
2026-05-06 16:13 24.90552 67.17003 107 ft 13 kts 76°
2026-05-06 16:13 24.90575 67.17096 107 ft 13 kts 73°
2026-05-06 16:13 24.90601 67.17188 107 ft 13 kts 72°
2026-05-06 16:14 24.90624 67.17279 107 ft 13 kts 74°
2026-05-06 16:14 24.90655 67.17369 107 ft 13 kts 60°
2026-05-06 16:14 24.90714 67.17439 108 ft 13 kts 35°
2026-05-06 16:14 24.90792 67.17481 110 ft 13 kts 15°
2026-05-06 16:15 24.90855 67.17475 109 ft 3 kts 310°
2026-05-06 16:15 24.90856 67.17447 109 ft 10 kts 265°
2026-05-06 16:15 24.90751 67.16992 110 ft 119 kts 255°
2026-05-06 16:15 24.90411 67.15728 298 ft 211 kts 252°
2026-05-06 16:16 24.89938 67.14080 1302 ft 236 kts 252°
2026-05-06 16:16 24.89347 67.12388 2082 ft 240 kts 239°
2026-05-06 16:16 24.88169 67.11054 2722 ft 247 kts 221°
2026-05-06 16:16 24.86864 67.09782 3394 ft 255 kts 224°
2026-05-06 16:17 24.85570 67.08413 4113 ft 262 kts 225°
2026-05-06 16:17 24.84268 67.06969 4879 ft 266 kts 226°
2026-05-06 16:17 24.82976 67.05492 5635 ft 271 kts 227°
2026-05-06 16:17 24.81646 67.03947 6230 ft 284 kts 227°
2026-05-06 16:18 24.80277 67.02348 6869 ft 290 kts 229°
2026-05-06 16:18 24.78911 67.00691 7560 ft 291 kts 236°
2026-05-06 16:18 24.78136 66.98650 8167 ft 292 kts 265°
2026-05-06 16:18 24.78085 66.96468 8858 ft 290 kts 272°
2026-05-06 16:19 24.77998 66.94195 9598 ft 295 kts 270°
2026-05-06 16:19 24.77871 66.91957 10228 ft 302 kts 270°
2026-05-06 16:19 24.77737 66.89561 10451 ft 327 kts 270°
2026-05-06 16:19 24.77598 66.86968 10643 ft 352 kts 270°
2026-05-06 16:20 24.77452 66.84202 10971 ft 370 kts 270°
2026-05-06 16:20 24.77300 66.81335 11629 ft 379 kts 270°
2026-05-06 16:20 24.77146 66.78411 12452 ft 385 kts 270°
2026-05-06 16:20 24.76991 66.75454 13371 ft 388 kts 270°
2026-05-06 16:21 24.76837 66.72475 14212 ft 392 kts 270°
2026-05-06 16:21 24.76683 66.69463 15053 ft 395 kts 270°
2026-05-06 16:21 24.76528 66.66429 15893 ft 398 kts 270°
2026-05-06 16:21 24.76372 66.63377 16721 ft 402 kts 270°
2026-05-06 16:22 24.76214 66.60289 17550 ft 406 kts 270°
2026-05-06 16:22 24.76054 66.57168 18320 ft 410 kts 270°
2026-05-06 16:22 24.75893 66.54033 19036 ft 412 kts 270°
2026-05-06 16:22 24.75730 66.50871 19751 ft 415 kts 270°
2026-05-06 16:23 24.75567 66.47729 20405 ft 419 kts 270°
2026-05-06 16:23 24.75399 66.44511 21066 ft 423 kts 270°
2026-05-06 16:23 24.75230 66.41257 21720 ft 426 kts 271°
2026-05-06 16:23 24.75058 66.37992 22355 ft 430 kts 271°
2026-05-06 16:24 24.74885 66.34699 22966 ft 433 kts 271°
2026-05-06 16:24 24.74709 66.31367 23525 ft 437 kts 271°
2026-05-06 16:24 24.74531 66.28019 24030 ft 439 kts 271°
2026-05-06 16:24 24.74353 66.24695 24565 ft 440 kts 271°
2026-05-06 16:25 24.74171 66.21334 25147 ft 441 kts 271°
2026-05-06 16:25 24.73989 66.17957 25678 ft 442 kts 271°
2026-05-06 16:25 24.73806 66.14571 26162 ft 444 kts 271°
2026-05-06 16:25 24.73621 66.11165 26619 ft 447 kts 271°
2026-05-06 16:26 24.73435 66.07733 27093 ft 449 kts 271°
2026-05-06 16:26 24.73246 66.04292 27581 ft 451 kts 271°
2026-05-06 16:26 24.73057 66.00843 28032 ft 453 kts 271°
2026-05-06 16:26 24.72865 65.97370 28481 ft 455 kts 271°
2026-05-06 16:27 24.72672 65.93880 28908 ft 457 kts 270°
2026-05-06 16:27 24.72477 65.90377 29279 ft 460 kts 270°
2026-05-06 16:27 24.72283 65.86904 29636 ft 462 kts 270°
2026-05-06 16:27 24.72084 65.83371 29988 ft 464 kts 270°
2026-05-06 16:28 24.71884 65.79821 30374 ft 463 kts 270°
2026-05-06 16:28 24.71682 65.76284 30805 ft 462 kts 270°
2026-05-06 16:28 24.71481 65.72769 31231 ft 461 kts 270°
2026-05-06 16:28 24.71280 65.69251 31642 ft 460 kts 270°
2026-05-06 16:29 24.71078 65.65737 32048 ft 460 kts 270°
2026-05-06 16:29 24.70876 65.62227 32447 ft 459 kts 269°
2026-05-06 16:29 24.70674 65.58728 32779 ft 460 kts 269°
2026-05-06 16:29 24.70473 65.55257 33118 ft 460 kts 269°
2026-05-06 16:30 24.70269 65.51736 33521 ft 459 kts 269°
2026-05-06 16:30 24.70133 65.49417 33794 ft 458 kts 269°
2026-05-06 16:30 24.69859 65.44748 34264 ft 457 kts 269°
2026-05-06 16:30 24.69652 65.41253 34604 ft 456 kts 269°
2026-05-06 16:31 24.69446 65.37771 34945 ft 455 kts 269°
2026-05-06 16:31 24.69241 65.34308 35279 ft 454 kts 268°
2026-05-06 16:31 24.69034 65.30842 35614 ft 454 kts 268°
2026-05-06 16:31 24.68826 65.27365 35733 ft 458 kts 268°
2026-05-06 16:32 24.68405 65.20350 35804 ft 459 kts 268°
2026-05-06 16:32 24.67983 65.13424 35801 ft 456 kts 268°
2026-05-06 16:33 24.67553 65.06360 35829 ft 468 kts 268°
2026-05-06 16:34 24.66885 64.95542 35810 ft 475 kts 268°
2026-05-06 16:34 24.66434 64.88318 35810 ft 477 kts 268°
2026-05-06 16:35 24.65976 64.81036 35807 ft 478 kts 268°
2026-05-06 16:35 24.65513 64.73741 35808 ft 478 kts 268°
2026-05-06 16:36 24.65048 64.66455 35809 ft 476 kts 268°
2026-05-06 16:36 24.64583 64.59235 35813 ft 475 kts 268°
2026-05-06 16:37 24.64114 64.51995 35810 ft 473 kts 268°
2026-05-06 16:37 24.63643 64.44777 35810 ft 473 kts 268°
2026-05-06 16:38 24.63169 64.37567 35813 ft 472 kts 268°
2026-05-06 16:38 24.62694 64.30393 35813 ft 472 kts 268°
2026-05-06 16:39 24.62213 64.23178 35816 ft 473 kts 268°
2026-05-06 16:39 24.61728 64.15959 35814 ft 474 kts 268°
2026-05-06 16:40 24.61242 64.08778 35812 ft 474 kts 268°
2026-05-06 16:40 24.60748 64.01521 35803 ft 475 kts 268°
2026-05-06 16:41 24.60251 63.94278 35812 ft 476 kts 268°
2026-05-06 16:41 24.59749 63.87026 35812 ft 476 kts 267°
2026-05-06 16:42 24.59243 63.79754 35809 ft 477 kts 267°
2026-05-06 16:42 24.58737 63.72530 35799 ft 477 kts 267°
2026-05-06 16:43 24.58227 63.65309 35810 ft 477 kts 267°
2026-05-06 16:43 24.57921 63.60993 35805 ft 477 kts 267°
2026-05-06 16:44 24.57402 63.53730 35807 ft 477 kts 267°
2026-05-06 16:44 24.56924 63.46467 35808 ft 475 kts 271°
2026-05-06 16:45 24.56941 63.39230 35802 ft 475 kts 272°
2026-05-06 16:45 24.56989 63.31958 35802 ft 475 kts 271°
2026-05-06 16:46 24.56996 63.25916 35800 ft 475 kts 271°
2026-05-06 16:46 24.56974 63.18676 35802 ft 476 kts 271°
2026-05-06 16:47 24.56940 63.11454 35796 ft 477 kts 271°
2026-05-06 16:47 24.56903 63.04163 35805 ft 478 kts 271°
2026-05-06 16:48 24.56863 62.96889 35801 ft 479 kts 271°
2026-05-06 16:48 24.56820 62.89564 35806 ft 480 kts 271°
2026-05-06 16:49 24.56774 62.82232 35796 ft 480 kts 271°
2026-05-06 16:49 24.56725 62.74911 35797 ft 480 kts 271°
2026-05-06 16:50 24.56671 62.67582 35801 ft 480 kts 271°
2026-05-06 16:50 24.56614 62.60251 35803 ft 480 kts 271°
2026-05-06 16:51 24.56555 62.52971 35800 ft 479 kts 271°
2026-05-06 16:51 24.56491 62.45641 35800 ft 480 kts 271°
2026-05-06 16:52 24.56423 62.38315 35803 ft 480 kts 271°
2026-05-06 16:52 24.56352 62.30972 35803 ft 480 kts 271°
2026-05-06 16:53 24.56278 62.23630 35802 ft 480 kts 270°
2026-05-06 16:53 24.56200 62.16330 35802 ft 480 kts 270°
2026-05-06 16:54 24.56118 62.08988 35800 ft 480 kts 270°
2026-05-06 16:54 24.56033 62.01637 35800 ft 481 kts 270°
2026-05-06 16:55 24.55944 61.94294 35803 ft 481 kts 270°
2026-05-06 16:55 24.55852 61.86946 35797 ft 481 kts 270°
2026-05-06 16:56 24.55756 61.79647 35804 ft 481 kts 270°
2026-05-06 16:56 24.55656 61.72292 35803 ft 481 kts 270°
2026-05-06 16:57 24.55553 61.64936 35800 ft 481 kts 270°
2026-05-06 16:57 24.55446 61.57585 35800 ft 482 kts 270°
2026-05-06 16:58 24.55336 61.50219 35803 ft 482 kts 270°
2026-05-06 16:58 24.55221 61.42865 35812 ft 481 kts 270°
2026-05-06 16:59 24.55105 61.35577 35798 ft 480 kts 270°
2026-05-06 16:59 24.54985 61.28253 35796 ft 479 kts 270°
2026-05-06 17:00 24.54861 61.20943 35800 ft 478 kts 270°
2026-05-06 17:00 24.54733 61.13635 35803 ft 478 kts 270°
2026-05-06 17:01 24.54603 61.06335 35804 ft 478 kts 270°
2026-05-06 17:01 24.54469 60.99074 35799 ft 478 kts 270°
2026-05-06 17:02 24.54331 60.91772 35800 ft 478 kts 270°
2026-05-06 17:02 24.54190 60.84450 35798 ft 479 kts 270°
2026-05-06 17:03 24.54044 60.77131 35798 ft 479 kts 270°
2026-05-06 17:03 24.53896 60.69800 35798 ft 479 kts 269°
2026-05-06 17:04 24.53744 60.62529 35797 ft 479 kts 269°
2026-05-06 17:04 24.53588 60.55201 35797 ft 479 kts 269°
2026-05-06 17:05 24.53429 60.47888 35797 ft 479 kts 269°
2026-05-06 17:05 24.53266 60.40575 35798 ft 479 kts 269°
2026-05-06 17:06 24.53100 60.33257 35794 ft 479 kts 269°
2026-05-06 17:06 24.52930 60.25945 35794 ft 478 kts 269°
2026-05-06 17:07 24.52757 60.18642 35793 ft 478 kts 269°
2026-05-06 17:07 24.52581 60.11341 35792 ft 478 kts 269°
2026-05-06 17:08 24.52402 60.04088 35793 ft 478 kts 269°
2026-05-06 17:08 24.52218 59.96791 35797 ft 478 kts 269°
2026-05-06 17:09 24.52031 59.89500 35789 ft 477 kts 269°
2026-05-06 17:09 24.51841 59.82218 35786 ft 476 kts 269°
2026-05-06 17:10 24.51648 59.74952 35787 ft 476 kts 269°
2026-05-06 17:10 24.51453 59.67728 35790 ft 476 kts 269°
2026-05-06 17:11 24.51253 59.60485 35789 ft 476 kts 269°
2026-05-06 17:11 24.51050 59.53234 35787 ft 476 kts 269°
2026-05-06 17:12 24.50843 59.45954 35789 ft 477 kts 269°
2026-05-06 17:12 24.50633 59.38716 35789 ft 477 kts 269°
2026-05-06 17:13 24.50418 59.31434 35789 ft 477 kts 269°
2026-05-06 17:13 24.50200 59.24138 35792 ft 478 kts 269°
2026-05-06 17:14 24.50131 59.16843 35784 ft 478 kts 274°
2026-05-06 17:14 24.50653 59.09565 35793 ft 479 kts 275°
2026-05-06 17:15 24.51195 59.02274 35793 ft 479 kts 274°
2026-05-06 17:15 24.51708 58.95007 35796 ft 480 kts 274°
2026-05-06 17:16 24.52203 58.87699 35794 ft 480 kts 274°
2026-05-06 17:16 24.52690 58.80403 35800 ft 481 kts 274°
2026-05-06 17:17 24.53176 58.73082 35790 ft 481 kts 274°
2026-05-06 17:17 24.53660 58.65752 35796 ft 480 kts 274°
2026-05-06 17:18 24.54139 58.58444 35792 ft 480 kts 274°
2026-05-06 17:18 24.54615 58.51127 35796 ft 479 kts 274°
2026-05-06 17:19 24.55087 58.43828 35794 ft 479 kts 274°
2026-05-06 17:19 24.55552 58.36574 35795 ft 479 kts 274°
2026-05-06 17:20 24.56016 58.29271 35795 ft 479 kts 274°
2026-05-06 17:20 24.56479 58.21940 35795 ft 479 kts 274°
2026-05-06 17:21 24.56938 58.14624 35796 ft 480 kts 274°
2026-05-06 17:21 24.57393 58.07302 35798 ft 480 kts 274°
2026-05-06 17:22 24.57844 57.99983 35798 ft 480 kts 274°
2026-05-06 17:22 24.58290 57.92694 35798 ft 481 kts 274°
2026-05-06 17:23 24.58736 57.85359 35796 ft 481 kts 273°
2026-05-06 17:23 24.59177 57.78020 35798 ft 481 kts 273°
2026-05-06 17:24 24.59616 57.70678 35800 ft 481 kts 273°
2026-05-06 17:24 24.60049 57.63360 35801 ft 481 kts 273°
2026-05-06 17:24 24.60263 57.59732 35788 ft 468 kts 273°
2026-05-06 17:25 24.60470 57.56213 35784 ft 454 kts 273°
2026-05-06 17:25 24.60670 57.52789 35482 ft 448 kts 273°
2026-05-06 17:25 24.60869 57.49374 34975 ft 445 kts 273°
2026-05-06 17:25 24.61064 57.45993 34479 ft 442 kts 274°
2026-05-06 17:26 24.61258 57.42633 33970 ft 439 kts 274°
2026-05-06 17:26 24.61450 57.39285 33393 ft 438 kts 274°
2026-05-06 17:26 24.61641 57.35964 32855 ft 434 kts 274°
2026-05-06 17:26 24.61830 57.32657 32333 ft 431 kts 274°
2026-05-06 17:27 24.62016 57.29383 31827 ft 428 kts 274°
2026-05-06 17:27 24.62197 57.26188 31815 ft 414 kts 273°
2026-05-06 17:27 24.62371 57.23096 31789 ft 409 kts 273°
2026-05-06 17:27 24.62547 57.19963 31592 ft 417 kts 273°
2026-05-06 17:28 24.62729 57.16720 30986 ft 428 kts 273°
2026-05-06 17:28 24.62911 57.13447 30315 ft 430 kts 273°
2026-05-06 17:28 24.63094 57.10155 29563 ft 433 kts 273°
2026-05-06 17:28 24.63277 57.06838 28758 ft 434 kts 273°
2026-05-06 17:29 24.63459 57.03540 27979 ft 435 kts 273°
2026-05-06 17:29 24.63580 57.01338 27479 ft 436 kts 273°
2026-05-06 17:29 24.63822 56.96927 26495 ft 437 kts 273°
2026-05-06 17:29 24.64004 56.93581 25740 ft 438 kts 274°
2026-05-06 17:30 24.64184 56.90274 25021 ft 438 kts 274°
2026-05-06 17:30 24.64382 56.88010 24523 ft 439 kts 279°
2026-05-06 17:30 24.65390 56.83705 23598 ft 440 kts 289°
2026-05-06 17:30 24.66123 56.81654 23287 ft 436 kts 294°
2026-05-06 17:31 24.67515 56.78728 23042 ft 424 kts 301°
2026-05-06 17:31 24.69036 56.76004 22931 ft 411 kts 301°
2026-05-06 17:31 24.70520 56.73368 22563 ft 406 kts 301°
2026-05-06 17:31 24.71979 56.70764 22073 ft 404 kts 301°
2026-05-06 17:32 24.73437 56.68144 21594 ft 400 kts 301°
2026-05-06 17:32 24.74883 56.65528 21123 ft 398 kts 301°
2026-05-06 17:32 24.76309 56.62936 20647 ft 395 kts 301°
2026-05-06 17:32 24.77717 56.60372 20192 ft 393 kts 301°
2026-05-06 17:33 24.79130 56.57797 19719 ft 391 kts 301°
2026-05-06 17:33 24.80530 56.55243 19251 ft 389 kts 301°
2026-05-06 17:33 24.81928 56.52689 18764 ft 388 kts 302°
2026-05-06 17:33 24.83307 56.50172 18300 ft 388 kts 302°
2026-05-06 17:34 24.84687 56.47652 17773 ft 387 kts 302°
2026-05-06 17:34 24.86074 56.45117 17277 ft 385 kts 302°
2026-05-06 17:34 24.87388 56.42560 16782 ft 381 kts 295°
2026-05-06 17:34 24.88202 56.39779 16309 ft 381 kts 282°
2026-05-06 17:35 24.88488 56.36880 15838 ft 381 kts 270°
2026-05-06 17:35 24.88319 56.33965 15363 ft 380 kts 266°
2026-05-06 17:35 24.88123 56.31108 14981 ft 376 kts 267°
2026-05-06 17:36 24.88273 56.25490 14293 ft 364 kts 284°
2026-05-06 17:36 24.88948 56.22833 13841 ft 363 kts 291°
2026-05-06 17:36 24.89865 56.20248 13407 ft 360 kts 294°
2026-05-06 17:36 24.90797 56.17698 12997 ft 357 kts 294°
2026-05-06 17:37 24.91723 56.15161 12559 ft 356 kts 293°
2026-05-06 17:37 24.92634 56.12662 12134 ft 354 kts 292°
2026-05-06 17:37 24.93553 56.10126 11674 ft 353 kts 292°
2026-05-06 17:37 24.94448 56.07647 11262 ft 352 kts 292°
2026-05-06 17:38 24.95339 56.05176 10843 ft 351 kts 291°
2026-05-06 17:38 24.96235 56.02686 10506 ft 346 kts 291°
2026-05-06 17:38 24.97101 56.00276 10307 ft 323 kts 291°
2026-05-06 17:38 24.97902 55.98042 10189 ft 307 kts 290°
2026-05-06 17:39 24.98677 55.95878 10056 ft 299 kts 290°
2026-05-06 17:39 24.99429 55.93780 9829 ft 294 kts 290°
2026-05-06 17:39 25.00181 55.91679 9482 ft 294 kts 290°
2026-05-06 17:39 25.00916 55.89620 9121 ft 294 kts 290°
2026-05-06 17:40 25.01661 55.87537 8768 ft 294 kts 290°
2026-05-06 17:40 25.02412 55.85436 8407 ft 294 kts 290°
2026-05-06 17:40 25.03161 55.83338 8036 ft 294 kts 290°
2026-05-06 17:40 25.03912 55.81233 7683 ft 295 kts 290°
2026-05-06 17:41 25.04657 55.79147 7328 ft 295 kts 291°
2026-05-06 17:41 25.05404 55.77051 7012 ft 294 kts 291°
2026-05-06 17:41 25.06147 55.74967 6691 ft 293 kts 291°
2026-05-06 17:41 25.06875 55.72926 6411 ft 282 kts 291°
2026-05-06 17:42 25.07564 55.70993 6226 ft 259 kts 291°
2026-05-06 17:42 25.08195 55.69220 6014 ft 243 kts 291°
2026-05-06 17:42 25.08806 55.67503 5784 ft 238 kts 291°
2026-05-06 17:42 25.09408 55.65812 5497 ft 236 kts 291°
2026-05-06 17:43 25.10039 55.64151 5208 ft 234 kts 296°
2026-05-06 17:43 25.10806 55.62597 4944 ft 230 kts 301°
2026-05-06 17:43 25.11626 55.61097 4626 ft 227 kts 302°
2026-05-06 17:43 25.12466 55.59584 3986 ft 238 kts 302°
2026-05-06 17:44 25.13341 55.58011 3611 ft 236 kts 302°
2026-05-06 17:44 25.14191 55.56477 3314 ft 232 kts 302°
2026-05-06 17:44 25.15024 55.54974 3016 ft 224 kts 302°
2026-05-06 17:44 25.15796 55.53581 2749 ft 206 kts 302°
2026-05-06 17:45 25.16514 55.52285 2498 ft 185 kts 302°
2026-05-06 17:45 25.17146 55.51142 2284 ft 174 kts 302°
2026-05-06 17:45 25.17786 55.49989 2100 ft 179 kts 302°
2026-05-06 17:45 25.18436 55.48814 1868 ft 178 kts 302°
2026-05-06 17:46 25.19074 55.47662 1637 ft 174 kts 302°
2026-05-06 17:46 25.19700 55.46531 1430 ft 171 kts 302°
2026-05-06 17:46 25.20322 55.45408 1221 ft 172 kts 302°
2026-05-06 17:46 25.20933 55.44304 1007 ft 162 kts 302°
2026-05-06 17:47 25.21497 55.43285 804 ft 152 kts 302°
2026-05-06 17:47 25.22041 55.42299 655 ft 149 kts 301°
2026-05-06 17:47 25.22566 55.41307 465 ft 150 kts 301°
2026-05-06 17:47 25.23104 55.40335 261 ft 147 kts 303°
2026-05-06 17:48 25.23590 55.39480 91 ft 146 kts 302°
2026-05-06 17:48 25.23904 55.38918 29 ft 141 kts 303°
2026-05-06 17:48 25.24256 55.38286 31 ft 121 kts 301°
2026-05-06 17:48 25.24496 55.37851 29 ft 85 kts 301°
2026-05-06 17:49 25.24577 55.37706 27 ft 0 kts 301°
2026-05-06 17:49 25.24581 55.37698 27 ft 8 kts 298°
2026-05-06 17:49 25.24601 55.37625 27 ft 17 kts 278°
2026-05-06 17:49 25.24607 55.37535 27 ft 17 kts 277°
2026-05-06 17:50 25.24613 55.37432 27 ft 17 kts 272°
2026-05-06 17:50 25.24621 55.37327 26 ft 17 kts 277°
2026-05-06 17:50 25.24639 55.37243 26 ft 17 kts 296°
2026-05-06 17:50 25.24689 55.37146 27 ft 17 kts 303°
2026-05-06 17:51 25.24749 55.37040 27 ft 17 kts 301°
2026-05-06 17:51 25.24786 55.36972 27 ft 17 kts 301°
2026-05-06 17:51 25.24820 55.36911 27 ft 17 kts 301°
2026-05-06 17:51 25.24867 55.36815 27 ft 17 kts 288°
2026-05-06 17:52 25.24892 55.36690 26 ft 17 kts 289°
2026-05-06 17:52 25.24928 55.36606 30 ft 18 kts 302°
2026-05-06 17:52 25.24965 55.36536 26 ft 18 kts 300°
2026-05-06 17:52 25.25016 55.36444 26 ft 18 kts 301°